TimeEDT,TemperatureF,Dew PointF,Humidity,Sea Level PressureIn,VisibilityMPH,Wind Direction,Wind SpeedMPH,Gust SpeedMPH,PrecipitationIn,Events,Conditions,WindDirDegrees,DateUTC
12:00 AM,51.8,48.2,88,29.64,7.0,Calm,Calm,-,N/A,Rain,Light Rain,0,2012-10-20 04:00:00
1:00 AM,50.0,48.2,94,29.61,15.0,NNE,9.2,-,N/A,,Mostly Cloudy,30,2012-10-20 05:00:00
2:00 AM,51,47,80,29.60,15,NE,2.3,,,,Partly Cloudy,50,2012-10-20 06:00:00
2:00 AM,51.8,46.4,82,29.60,15.0,NE,2.3,-,N/A,,Mostly Cloudy,50,2012-10-20 06:00:00
2:33 AM,50.0,-9999,N/A,-9999,10.0,South,2.3,-,N/A,Rain,Light Rain Showers,180,2012-10-20 06:33:00
3:00 AM,50.0,48.2,94,29.62,7.0,SSW,8.1,-,N/A,Rain,Light Rain Showers,210,2012-10-20 07:00:00
3:08 AM,50.0,-9999,N/A,-9999,3.0,SSW,10.4,-,N/A,Rain,Light Rain,210,2012-10-20 07:08:00
4:00 AM,48.2,46.4,93,29.62,7.0,SW,4.6,-,N/A,Rain,Light Rain,230,2012-10-20 08:00:00
5:00 AM,48.2,46.4,93,29.62,10.0,South,3.5,-,N/A,Rain,Light Rain,180,2012-10-20 09:00:00
5:32 AM,48.2,-9999,N/A,-9999,15.0,South,3.5,-,N/A,,Overcast,190,2012-10-20 09:32:00
6:00 AM,48.2,46.4,93,29.62,15.0,SSE,3.5,-,N/A,,Mostly Cloudy,160,2012-10-20 10:00:00
7:00 AM,48.2,46.4,93,29.63,15.0,South,4.6,-,N/A,,Mostly Cloudy,180,2012-10-20 11:00:00
8:00 AM,47,45,89,29.63,15,SSW,5.8,,,,Partly Cloudy,200,2012-10-20 12:00:00
8:00 AM,46.4,44.6,93,29.63,15.0,South,4.6,-,N/A,,Partly Cloudy,190,2012-10-20 12:00:00
9:00 AM,48.2,44.6,87,29.64,15.0,SSW,6.9,-,N/A,,Mostly Cloudy,210,2012-10-20 13:00:00
10:00 AM,50.0,46.4,87,29.63,15.0,WSW,11.5,-,N/A,,Mostly Cloudy,250,2012-10-20 14:00:00
11:00 AM,51.8,44.6,76,29.63,15.0,WSW,12.7,-,N/A,,Mostly Cloudy,250,2012-10-20 15:00:00
12:00 PM,51.8,44.6,76,29.65,15.0,WSW,12.7,-,N/A,,Mostly Cloudy,250,2012-10-20 16:00:00
1:00 PM,51.8,42.8,71,29.64,15.0,SW,10.4,-,N/A,,Overcast,220,2012-10-20 17:00:00
2:00 PM,52,42,60,29.64,15,SW,11.5,,,,Mostly Cloudy,220,2012-10-20 18:00:00
2:00 PM,51.8,42.8,71,29.64,15.0,SW,10.4,-,N/A,,Mostly Cloudy,220,2012-10-20 18:00:00
3:00 PM,51.8,42.8,71,29.64,15.0,SW,12.7,-,N/A,,Overcast,230,2012-10-20 19:00:00
3:47 PM,50.0,-9999,N/A,-9999,15.0,West,13.8,-,N/A,Rain,Light Rain Showers,270,2012-10-20 19:47:00
4:00 PM,50.0,44.6,82,29.65,15.0,West,11.5,-,N/A,Rain,Light Rain Showers,270,2012-10-20 20:00:00
5:00 PM,50.0,44.6,82,29.66,15.0,WSW,8.1,-,N/A,,Mostly Cloudy,250,2012-10-20 21:00:00
6:00 PM,50.0,44.6,82,29.68,15.0,WSW,8.1,-,N/A,,Mostly Cloudy,240,2012-10-20 22:00:00
6:20 PM,50.0,-9999,N/A,-9999,12.0,WSW,8.1,-,N/A,Rain,Light Rain Showers,250,2012-10-20 22:20:00
7:00 PM,50.0,46.4,87,29.70,15.0,WSW,8.1,-,N/A,,Overcast,240,2012-10-20 23:00:00
8:00 PM,50,45,77,29.71,15,West,10.4,,,Rain,Light Rain Showers,270,2012-10-21 00:00:00
8:00 PM,50.0,44.6,82,29.71,15.0,West,11.5,-,N/A,Rain,Light Rain Showers,270,2012-10-21 00:00:00
8:19 PM,48.2,-9999,N/A,-9999,15.0,WNW,9.2,-,N/A,,Mostly Cloudy,290,2012-10-21 00:19:00
9:00 PM,48.2,42.8,82,29.74,15.0,WNW,12.7,-,N/A,,Mostly Cloudy,290,2012-10-21 01:00:00
10:00 PM,48.2,42.8,82,29.75,15.0,West,9.2,-,N/A,,Mostly Cloudy,260,2012-10-21 02:00:00
11:00 PM,44.6,42.8,93,29.77,15.0,WSW,10.4,-,N/A,,Scattered Clouds,250,2012-10-21 03:00:00